Time,TemperatureF,DewpointF,PressureIn,WindDirection,WindDirectionDegrees,WindSpeedMPH,WindSpeedGustMPH,Humidity,HourlyPrecipIn,Conditions,Clouds,dailyrainin,SolarRadiationWatts/m^2,SoftwareType,DateUTC
2013-05-18 00:01:00,55.7,52.5,29.88,East,90,3.0,3.0,89,0.00,,---,0.00,0.00,VWS V14.00,2013-05-18 05:01:00,
2013-05-18 00:06:00,55.7,52.5,29.88,East,95,3.0,3.0,89,0.00,,---,0.00,0.00,VWS V14.00,2013-05-18 05:06:00,
2013-05-18 00:11:00,55.7,52.5,29.88,SE,126,3.0,3.0,89,0.00,,---,0.00,0.00,VWS V14.00,2013-05-18 05:11:00,
2013-05-18 00:16:00,55.7,52.5,29.88,SE,136,4.0,4.0,89,0.00,,---,0.00,0.00,VWS V14.00,2013-05-18 05:16:00,
2013-05-18 00:21:00,55.7,52.5,29.87,ESE,121,6.0,7.0,89,0.00,,---,0.00,0.00,VWS V14.00,2013-05-18 05:21:00,
2013-05-18 00:26:00,55.7,52.5,29.87,SE,141,2.0,4.0,89,0.00,,---,0.00,0.00,VWS V14.00,2013-05-18 05:26:00,
2013-05-18 00:31:00,55.9,52.7,29.87,SE,124,5.0,5.0,89,0.00,,---,0.00,0.00,VWS V14.00,2013-05-18 05:31:00,
2013-05-18 00:36:00,55.7,52.5,29.86,East,97,6.0,6.0,89,0.00,,---,0.00,0.00,VWS V14.00,2013-05-18 05:36:00,
2013-05-18 00:41:00,55.7,52.5,29.86,East,96,3.0,3.0,89,0.00,,---,0.00,0.00,VWS V14.00,2013-05-18 05:41:00,
2013-05-18 00:46:00,55.9,52.7,29.86,ESE,121,3.0,3.0,89,0.00,,---,0.00,0.00,VWS V14.00,2013-05-18 05:46:00,
2013-05-18 00:51:00,55.9,52.7,29.86,East,96,3.0,3.0,89,0.00,,---,0.00,0.00,VWS V14.00,2013-05-18 05:51:00,
2013-05-18 00:56:00,55.9,52.7,29.86,ESE,102,2.0,2.0,89,0.00,,---,0.00,0.00,VWS V14.00,2013-05-18 05:56:00,
2013-05-18 01:01:00,55.7,52.5,29.86,ESE,110,8.0,8.0,89,0.00,,---,0.00,0.00,VWS V14.00,2013-05-18 06:01:00,
2013-05-18 01:06:00,55.7,52.5,29.86,ESE,106,5.0,7.0,89,0.00,,---,0.00,0.00,VWS V14.00,2013-05-18 06:06:00,
2013-05-18 01:11:00,55.7,52.5,29.86,ESE,110,3.0,3.0,89,0.00,,---,0.00,0.00,VWS V14.00,2013-05-18 06:11:00,
2013-05-18 01:16:00,55.7,52.5,29.86,ENE,73,2.0,3.0,89,0.00,,---,0.00,0.00,VWS V14.00,2013-05-18 06:16:00,
2013-05-18 01:21:00,55.7,52.5,29.86,East,89,2.0,2.0,89,0.00,,---,0.00,0.00,VWS V14.00,2013-05-18 06:21:00,
2013-05-18 01:26:00,55.6,52.4,29.86,East,99,2.0,2.0,89,0.00,,---,0.00,0.00,VWS V14.00,2013-05-18 06:26:00,
2013-05-18 01:31:00,55.6,52.4,29.86,ESE,116,8.0,8.0,89,0.00,,---,0.00,0.00,VWS V14.00,2013-05-18 06:31:00,
2013-05-18 01:36:00,55.6,52.4,29.86,East,100,3.0,3.0,89,0.00,,---,0.00,0.00,VWS V14.00,2013-05-18 06:36:00,
2013-05-18 01:41:00,55.6,52.4,29.86,SE,124,5.0,7.0,89,0.00,,---,0.00,0.00,VWS V14.00,2013-05-18 06:41:00,
2013-05-18 01:46:00,55.6,52.4,29.86,SE,130,6.0,6.0,89,0.00,,---,0.00,0.00,VWS V14.00,2013-05-18 06:46:00,
2013-05-18 01:51:00,55.6,52.4,29.85,SSE,147,7.0,7.0,89,0.00,,---,0.00,0.00,VWS V14.00,2013-05-18 06:51:00,
2013-05-18 01:56:00,55.6,52.4,29.85,ESE,110,8.0,8.0,89,0.00,,---,0.00,0.00,VWS V14.00,2013-05-18 06:56:00,
2013-05-18 02:01:00,55.6,52.4,29.85,ESE,123,4.0,5.0,89,0.00,,---,0.00,0.00,VWS V14.00,2013-05-18 07:01:00,
2013-05-18 02:06:00,55.6,52.4,29.85,SE,140,5.0,5.0,89,0.00,,---,0.00,0.00,VWS V14.00,2013-05-18 07:06:00,
2013-05-18 02:11:00,55.6,52.4,29.85,East,100,3.0,3.0,89,0.00,,---,0.00,0.00,VWS V14.00,2013-05-18 07:11:00,
2013-05-18 02:16:00,55.6,52.4,29.85,ESE,123,5.0,5.0,89,0.00,,---,0.00,0.00,VWS V14.00,2013-05-18 07:16:00,
2013-05-18 02:21:00,55.6,52.4,29.85,SE,128,3.0,3.0,89,0.00,,---,0.00,0.00,VWS V14.00,2013-05-18 07:21:00,
2013-05-18 02:26:00,55.6,52.4,29.85,ESE,123,3.0,3.0,89,0.00,,---,0.00,0.00,VWS V14.00,2013-05-18 07:26:00,
2013-05-18 02:31:00,55.6,52.1,29.85,SE,138,3.0,3.0,88,0.00,,---,0.00,0.00,VWS V14.00,2013-05-18 07:31:00,
2013-05-18 02:36:00,55.6,52.1,29.84,SE,131,6.0,8.0,88,0.00,,---,0.00,0.00,VWS V14.00,2013-05-18 07:36:00,
2013-05-18 02:41:00,55.6,52.1,29.84,SE,124,4.0,4.0,88,0.00,,---,0.00,0.00,VWS V14.00,2013-05-18 07:41:00,
2013-05-18 02:46:00,55.4,51.9,29.84,ESE,120,4.0,5.0,88,0.00,,---,0.00,0.00,VWS V14.00,2013-05-18 07:46:00,
2013-05-18 02:50:00,55.4,51.9,29.85,ESE,109,2.0,2.0,88,0.00,,---,0.00,0.00,VWS V14.00,2013-05-18 07:50:00,
2013-05-18 02:55:00,55.4,51.9,29.85,East,85,5.0,5.0,88,0.00,,---,0.00,0.00,VWS V14.00,2013-05-18 07:55:00,
2013-05-18 03:00:00,55.4,51.9,29.85,ESE,104,4.0,4.0,88,0.00,,---,0.00,0.00,VWS V14.00,2013-05-18 08:00:00,
2013-05-18 03:05:00,55.4,51.9,29.84,SE,140,6.0,6.0,88,0.00,,---,0.00,0.00,VWS V14.00,2013-05-18 08:05:00,
2013-05-18 03:10:00,55.4,51.9,29.84,East,97,4.0,4.0,88,0.00,,---,0.00,0.00,VWS V14.00,2013-05-18 08:10:00,
2013-05-18 03:15:00,55.4,51.9,29.84,SE,131,2.0,3.0,88,0.00,,---,0.00,0.00,VWS V14.00,2013-05-18 08:15:00,
2013-05-18 03:20:00,55.4,51.9,29.84,SE,131,2.0,5.0,88,0.00,,---,0.00,0.00,VWS V14.00,2013-05-18 08:20:00,
2013-05-18 03:25:00,55.4,51.9,29.84,ESE,117,3.0,3.0,88,0.00,,---,0.00,0.00,VWS V14.00,2013-05-18 08:25:00,
2013-05-18 03:30:00,55.4,51.9,29.84,East,99,2.0,2.0,88,0.00,,---,0.00,0.00,VWS V14.00,2013-05-18 08:30:00,
2013-05-18 03:35:00,55.4,51.9,29.84,SE,126,3.0,6.0,88,0.00,,---,0.00,0.00,VWS V14.00,2013-05-18 08:35:00,
2013-05-18 03:40:00,55.4,51.9,29.84,ESE,102,3.0,3.0,88,0.00,,---,0.00,0.00,VWS V14.00,2013-05-18 08:40:00,
2013-05-18 03:45:00,55.4,51.9,29.84,ESE,103,3.0,3.0,88,0.00,,---,0.00,0.00,VWS V14.00,2013-05-18 08:45:00,
2013-05-18 03:50:00,55.6,52.1,29.83,SE,124,5.0,5.0,88,0.00,,---,0.00,0.00,VWS V14.00,2013-05-18 08:50:00,
2013-05-18 03:55:00,55.6,52.1,29.83,ESE,119,3.0,3.0,88,0.00,,---,0.00,0.00,VWS V14.00,2013-05-18 08:55:00,
2013-05-18 04:00:00,55.6,52.1,29.83,ESE,109,10.0,10.0,88,0.00,,---,0.00,0.00,VWS V14.00,2013-05-18 09:00:00,
2013-05-18 04:05:00,55.7,52.2,29.83,SE,137,6.0,7.0,88,0.00,,---,0.00,0.00,VWS V14.00,2013-05-18 09:05:00,
2013-05-18 04:10:00,55.7,52.2,29.83,ESE,113,4.0,4.0,88,0.00,,---,0.00,0.00,VWS V14.00,2013-05-18 09:10:00,
2013-05-18 04:15:00,55.9,52.4,29.83,ESE,113,6.0,6.0,88,0.00,,---,0.00,0.00,VWS V14.00,2013-05-18 09:15:00,
2013-05-18 04:20:00,55.9,52.4,29.83,ESE,120,7.0,8.0,88,0.00,,---,0.00,0.00,VWS V14.00,2013-05-18 09:20:00,
2013-05-18 04:25:00,55.9,52.4,29.83,SSE,147,8.0,8.0,88,0.00,,---,0.00,0.00,VWS V14.00,2013-05-18 09:25:00,
2013-05-18 04:30:00,56.0,52.5,29.83,SE,144,6.0,6.0,88,0.00,,---,0.00,0.00,VWS V14.00,2013-05-18 09:30:00,
2013-05-18 04:35:00,56.2,52.7,29.82,SE,133,3.0,8.0,88,0.00,,---,0.00,0.00,VWS V14.00,2013-05-18 09:35:00,
2013-05-18 04:40:00,56.3,52.8,29.82,ESE,123,5.0,5.0,88,0.00,,---,0.00,0.00,VWS V14.00,2013-05-18 09:40:00,
2013-05-18 04:45:00,56.3,52.8,29.82,East,99,6.0,6.0,88,0.00,,---,0.00,0.00,VWS V14.00,2013-05-18 09:45:00,
2013-05-18 04:50:00,56.3,52.8,29.83,East,93,3.0,3.0,88,0.00,,---,0.00,0.00,VWS V14.00,2013-05-18 09:50:00,
2013-05-18 04:55:00,56.5,53.0,29.83,ESE,121,5.0,5.0,88,0.00,,---,0.00,0.00,VWS V14.00,2013-05-18 09:55:00,
2013-05-18 05:00:00,56.5,53.0,29.83,SSE,160,1.0,1.0,88,0.00,,---,0.00,0.00,VWS V14.00,2013-05-18 10:00:00,
2013-05-18 05:05:00,56.5,53.0,29.84,ESE,112,1.0,1.0,88,0.00,,---,0.00,0.00,VWS V14.00,2013-05-18 10:05:00,
2013-05-18 05:10:00,56.6,53.1,29.84,SE,124,1.0,1.0,88,0.00,,---,0.00,0.00,VWS V14.00,2013-05-18 10:10:00,
2013-05-18 05:15:00,56.6,53.1,29.84,SE,130,1.0,1.0,88,0.00,,---,0.00,0.00,VWS V14.00,2013-05-18 10:15:00,
2013-05-18 05:20:00,56.6,53.1,29.85,East,89,0.0,0.0,88,0.00,,---,0.00,0.00,VWS V14.00,2013-05-18 10:20:00,
2013-05-18 05:25:00,56.6,53.1,29.85,East,89,0.0,0.0,88,0.00,,---,0.01,0.00,VWS V14.00,2013-05-18 10:25:00,
2013-05-18 05:30:00,56.6,53.1,29.85,East,89,1.0,1.0,88,0.09,,---,0.02,0.00,VWS V14.00,2013-05-18 10:30:00,
2013-05-18 05:35:00,56.6,52.5,29.87,East,89,1.0,1.0,86,0.10,,---,0.02,0.00,VWS V14.00,2013-05-18 10:35:00,
2013-05-18 05:40:00,56.5,52.4,29.87,East,90,1.0,1.0,86,0.10,,---,0.02,0.00,VWS V14.00,2013-05-18 10:40:00,
2013-05-18 05:45:00,56.5,52.7,29.87,East,88,0.0,0.0,87,0.05,,---,0.02,0.00,VWS V14.00,2013-05-18 10:45:00,
2013-05-18 05:50:00,56.3,52.5,29.87,NE,55,1.0,2.0,87,0.00,,---,0.03,0.00,VWS V14.00,2013-05-18 10:50:00,
2013-05-18 05:55:00,56.3,52.5,29.87,North,0,2.0,2.0,87,0.00,,---,0.03,0.00,VWS V14.00,2013-05-18 10:55:00,
2013-05-18 06:00:00,56.3,52.5,29.87,NNE,21,1.0,1.0,87,0.00,,---,0.03,0.00,VWS V14.00,2013-05-18 11:00:00,
2013-05-18 06:05:00,56.0,52.2,29.88,ENE,71,1.0,1.0,87,0.00,,---,0.03,0.00,VWS V14.00,2013-05-18 11:05:00,
2013-05-18 06:10:00,56.0,52.2,29.88,North,4,0.0,0.0,87,0.00,,---,0.04,0.00,VWS V14.00,2013-05-18 11:10:00,
2013-05-18 06:15:00,56.0,52.2,29.88,NNE,14,1.0,1.0,87,0.00,,---,0.04,0.00,VWS V14.00,2013-05-18 11:15:00,
2013-05-18 06:20:00,55.7,52.5,29.88,NE,37,2.0,2.0,89,0.00,,---,0.04,0.00,VWS V14.00,2013-05-18 11:20:00,
2013-05-18 06:25:00,55.6,52.4,29.88,ENE,64,2.0,2.0,89,0.00,,---,0.05,0.00,VWS V14.00,2013-05-18 11:25:00,
2013-05-18 06:30:00,55.4,52.2,29.88,North,8,3.0,3.0,89,0.00,,---,0.05,0.00,VWS V14.00,2013-05-18 11:30:00,
2013-05-18 06:35:00,55.4,52.2,29.90,North,6,1.0,1.0,89,0.00,,---,0.05,0.00,VWS V14.00,2013-05-18 11:35:00,
2013-05-18 06:40:00,55.4,52.2,29.90,NNE,13,0.0,0.0,89,0.00,,---,0.05,0.00,VWS V14.00,2013-05-18 11:40:00,
2013-05-18 06:45:00,55.4,52.2,29.90,ESE,104,3.0,3.0,89,0.11,,---,0.05,0.00,VWS V14.00,2013-05-18 11:45:00,
2013-05-18 06:50:00,55.1,51.9,29.89,East,95,1.0,1.0,89,0.13,,---,0.08,0.00,VWS V14.00,2013-05-18 11:50:00,
2013-05-18 06:55:00,55.1,51.9,29.89,North,10,2.0,2.0,89,0.11,,---,0.08,0.00,VWS V14.00,2013-05-18 11:55:00,
2013-05-18 07:00:00,54.8,52.2,29.89,ENE,78,3.0,3.0,91,0.30,,---,0.08,0.00,VWS V14.00,2013-05-18 12:00:00,
2013-05-18 07:05:00,54.8,52.2,29.89,East,97,2.0,2.0,91,0.23,,---,0.14,0.00,VWS V14.00,2013-05-18 12:05:00,
2013-05-18 07:10:00,54.7,52.1,29.89,ESE,107,2.0,4.0,91,0.15,,---,0.14,0.00,VWS V14.00,2013-05-18 12:10:00,
2013-05-18 07:15:00,54.5,51.9,29.89,ESE,109,4.0,4.0,91,0.13,,---,0.16,0.00,VWS V14.00,2013-05-18 12:15:00,
2013-05-18 07:20:00,54.5,52.2,29.89,ESE,104,3.0,4.0,92,0.12,,---,0.16,0.00,VWS V14.00,2013-05-18 12:20:00,
2013-05-18 07:25:00,54.4,52.1,29.89,East,89,3.0,3.0,92,0.11,,---,0.17,0.00,VWS V14.00,2013-05-18 12:25:00,
2013-05-18 07:30:00,54.4,52.1,29.89,SE,127,3.0,3.0,92,0.10,,---,0.18,0.00,VWS V14.00,2013-05-18 12:30:00,
2013-05-18 07:35:00,54.4,52.1,29.89,SE,127,2.0,2.0,92,0.10,,---,0.19,0.00,VWS V14.00,2013-05-18 12:35:00,
2013-05-18 07:40:00,54.4,52.1,29.89,ESE,112,3.0,3.0,92,0.08,,---,0.20,0.00,VWS V14.00,2013-05-18 12:40:00,
2013-05-18 07:45:00,54.4,52.1,29.89,ESE,109,4.0,4.0,92,0.06,,---,0.20,0.00,VWS V14.00,2013-05-18 12:45:00,
2013-05-18 07:50:00,54.4,52.1,29.89,SE,126,3.0,3.0,92,0.07,,---,0.21,0.00,VWS V14.00,2013-05-18 12:50:00,
2013-05-18 07:55:00,54.4,52.1,29.89,East,100,6.0,6.0,92,0.16,,---,0.21,0.00,VWS V14.00,2013-05-18 12:55:00,
2013-05-18 08:00:00,54.4,52.1,29.89,ESE,102,4.0,4.0,92,0.23,,---,0.21,0.00,VWS V14.00,2013-05-18 13:00:00,
2013-05-18 08:05:00,54.4,52.1,29.88,SE,128,2.0,2.0,92,0.13,,---,0.21,0.00,VWS V14.00,2013-05-18 13:05:00,
2013-05-18 08:10:00,54.4,52.1,29.88,East,93,3.0,3.0,92,0.11,,---,0.21,0.00,VWS V14.00,2013-05-18 13:10:00,
2013-05-18 08:15:00,54.4,52.4,29.88,SE,140,5.0,5.0,93,0.10,,---,0.26,0.00,VWS V14.00,2013-05-18 13:15:00,
2013-05-18 08:20:00,54.4,52.4,29.88,SE,145,6.0,6.0,93,0.05,,---,0.26,0.00,VWS V14.00,2013-05-18 13:20:00,
2013-05-18 08:25:00,54.4,52.4,29.88,SE,134,5.0,5.0,93,0.05,,---,0.27,0.00,VWS V14.00,2013-05-18 13:25:00,
2013-05-18 08:30:00,54.4,52.4,29.88,SE,124,3.0,3.0,93,0.05,,---,0.27,0.00,VWS V14.00,2013-05-18 13:30:00,
2013-05-18 08:35:00,54.4,52.4,29.89,ESE,112,3.0,3.0,93,0.05,,---,0.27,0.00,VWS V14.00,2013-05-18 13:35:00,
2013-05-18 08:40:00,54.5,52.5,29.89,ESE,114,7.0,7.0,93,0.32,,---,0.27,0.00,VWS V14.00,2013-05-18 13:40:00,
2013-05-18 08:45:00,54.5,52.5,29.89,ESE,106,5.0,5.0,93,0.41,,---,0.27,0.00,VWS V14.00,2013-05-18 13:45:00,
2013-05-18 08:50:00,54.7,52.7,29.85,SE,134,7.0,7.0,93,0.29,,---,0.27,0.00,VWS V14.00,2013-05-18 13:50:00,
2013-05-18 08:55:00,54.7,52.7,29.85,ESE,109,2.0,2.0,93,0.25,,---,0.36,0.00,VWS V14.00,2013-05-18 13:55:00,
2013-05-18 09:00:00,54.7,52.7,29.85,East,100,1.0,1.0,93,0.10,,---,0.36,0.00,VWS V14.00,2013-05-18 14:00:00,
2013-05-18 09:05:00,55.1,53.1,29.86,SE,126,5.0,5.0,93,0.06,,---,0.36,0.00,VWS V14.00,2013-05-18 14:05:00,
2013-05-18 09:10:00,55.1,53.1,29.86,SE,130,3.0,3.0,93,0.06,,---,0.36,0.00,VWS V14.00,2013-05-18 14:10:00,
2013-05-18 09:15:00,55.4,53.4,29.86,SE,126,3.0,4.0,93,0.05,,---,0.38,0.00,VWS V14.00,2013-05-18 14:15:00,
2013-05-18 09:20:00,55.7,54.0,29.87,SE,133,2.0,5.0,94,0.04,,---,0.39,7.00,VWS V14.00,2013-05-18 14:20:00,
2013-05-18 09:25:00,55.9,54.2,29.87,East,97,1.0,5.0,94,0.12,,---,0.40,7.00,VWS V14.00,2013-05-18 14:25:00,
2013-05-18 09:30:00,55.9,54.2,29.87,SSE,157,0.0,1.0,94,0.10,,---,0.40,7.00,VWS V14.00,2013-05-18 14:30:00,
2013-05-18 09:35:00,55.9,54.2,29.89,South,176,0.0,0.0,94,0.10,,---,0.40,0.00,VWS V14.00,2013-05-18 14:35:00,
2013-05-18 09:40:00,56.0,54.3,29.89,South,182,0.0,0.0,94,0.20,,---,0.40,0.00,VWS V14.00,2013-05-18 14:40:00,
2013-05-18 09:45:00,56.0,54.3,29.89,South,182,0.0,0.0,94,0.20,,---,0.40,0.00,VWS V14.00,2013-05-18 14:45:00,
2013-05-18 09:50:00,56.0,54.3,29.89,SE,124,2.0,2.0,94,0.15,,---,0.40,0.00,VWS V14.00,2013-05-18 14:50:00,
2013-05-18 09:55:00,56.3,54.6,29.89,ESE,116,6.0,6.0,94,0.14,,---,0.40,0.00,VWS V14.00,2013-05-18 14:55:00,
2013-05-18 10:00:00,56.3,54.6,29.89,SE,141,6.0,6.0,94,0.19,,---,0.40,0.00,VWS V14.00,2013-05-18 15:00:00,
2013-05-18 10:05:00,56.3,54.6,29.87,ESE,112,6.0,6.0,94,0.11,,---,0.40,0.00,VWS V14.00,2013-05-18 15:05:00,
2013-05-18 10:10:00,56.3,54.6,29.87,ESE,104,5.0,5.0,94,0.08,,---,0.50,0.00,VWS V14.00,2013-05-18 15:10:00,
2013-05-18 10:15:00,56.6,54.9,29.87,SE,138,7.0,7.0,94,0.12,,---,0.50,0.00,VWS V14.00,2013-05-18 15:15:00,
2013-05-18 10:20:00,56.7,55.0,29.84,ESE,119,7.0,10.0,94,0.26,,---,0.50,0.00,VWS V14.00,2013-05-18 15:20:00,
2013-05-18 10:25:00,56.7,55.0,29.84,SSE,148,7.0,10.0,94,0.19,,---,0.50,0.00,VWS V14.00,2013-05-18 15:25:00,
2013-05-18 10:30:00,56.7,55.0,29.84,South,169,3.0,3.0,94,0.18,,---,0.50,0.00,VWS V14.00,2013-05-18 15:30:00,
2013-05-18 10:35:00,56.9,55.2,29.83,SSE,164,2.0,2.0,94,0.06,,---,0.50,0.00,VWS V14.00,2013-05-18 15:35:00,
2013-05-18 10:40:00,57.0,55.3,29.83,SSE,148,2.0,2.0,94,0.05,,---,0.50,0.00,VWS V14.00,2013-05-18 15:40:00,
2013-05-18 10:45:00,57.0,55.3,29.83,SE,131,3.0,3.0,94,0.04,,---,0.50,0.00,VWS V14.00,2013-05-18 15:45:00,
2013-05-18 10:50:00,57.3,55.9,29.84,ESE,114,7.0,8.0,95,0.04,,---,0.50,0.00,VWS V14.00,2013-05-18 15:50:00,
2013-05-18 10:55:00,57.3,55.6,29.84,South,178,5.0,5.0,94,0.07,,---,0.50,16.00,VWS V14.00,2013-05-18 15:55:00,
2013-05-18 11:00:00,57.3,55.9,29.84,South,172,2.0,2.0,95,0.07,,---,0.50,16.00,VWS V14.00,2013-05-18 16:00:00,
2013-05-18 11:05:00,57.3,55.9,29.84,East,100,6.0,6.0,95,0.05,,---,0.50,16.00,VWS V14.00,2013-05-18 16:05:00,
2013-05-18 11:10:00,57.3,55.9,29.84,SSE,154,1.0,5.0,95,0.04,,---,0.50,16.00,VWS V14.00,2013-05-18 16:10:00,
2013-05-18 11:15:00,57.3,55.9,29.84,SE,141,2.0,2.0,95,0.04,,---,0.50,16.00,VWS V14.00,2013-05-18 16:15:00,
2013-05-18 11:20:00,57.8,56.4,29.84,SE,131,2.0,2.0,95,0.04,,---,0.50,16.00,VWS V14.00,2013-05-18 16:20:00,
2013-05-18 11:25:00,58.0,56.6,29.84,ESE,113,5.0,5.0,95,0.04,,---,0.50,16.00,VWS V14.00,2013-05-18 16:25:00,
2013-05-18 11:30:00,58.1,56.7,29.84,SSE,151,2.0,2.0,95,0.00,,---,0.50,134.00,VWS V14.00,2013-05-18 16:30:00,
2013-05-18 11:35:00,58.9,57.5,29.83,SE,144,5.0,6.0,95,0.00,,---,0.50,164.00,VWS V14.00,2013-05-18 16:35:00,
2013-05-18 11:40:00,59.3,57.9,29.83,SSE,165,1.0,6.0,95,0.00,,---,0.50,164.00,VWS V14.00,2013-05-18 16:40:00,
2013-05-18 11:45:00,59.6,58.2,29.83,SE,143,4.0,4.0,95,0.00,,---,0.50,222.00,VWS V14.00,2013-05-18 16:45:00,
2013-05-18 11:50:00,59.8,58.4,29.82,SSE,151,2.0,2.0,95,0.00,,---,0.50,248.00,VWS V14.00,2013-05-18 16:50:00,
2013-05-18 11:55:00,59.9,58.5,29.82,East,83,6.0,6.0,95,0.00,,---,0.50,248.00,VWS V14.00,2013-05-18 16:55:00,
2013-05-18 12:00:00,60.1,58.7,29.82,ESE,119,5.0,5.0,95,0.00,,---,0.50,248.00,VWS V14.00,2013-05-18 17:00:00,
2013-05-18 12:05:00,60.1,58.7,29.81,ESE,117,5.0,5.0,95,0.00,,---,0.50,248.00,VWS V14.00,2013-05-18 17:05:00,
2013-05-18 12:10:00,60.7,59.3,29.81,SE,133,1.0,1.0,95,0.00,,---,0.50,248.00,VWS V14.00,2013-05-18 17:10:00,
2013-05-18 12:15:00,61.3,59.9,29.81,ESE,112,2.0,2.0,95,0.00,,---,0.50,248.00,VWS V14.00,2013-05-18 17:15:00,
2013-05-18 12:20:00,62.1,60.7,29.81,ESE,116,6.0,6.0,95,0.00,,---,0.50,248.00,VWS V14.00,2013-05-18 17:20:00,
2013-05-18 12:25:00,63.2,62.0,29.81,ESE,120,5.0,5.0,96,0.00,,---,0.50,248.00,VWS V14.00,2013-05-18 17:25:00,
2013-05-18 12:30:00,63.5,62.3,29.81,SSE,155,5.0,5.0,96,0.00,,---,0.50,472.00,VWS V14.00,2013-05-18 17:30:00,
2013-05-18 12:35:00,63.5,62.3,29.80,SSE,152,3.0,5.0,96,0.00,,---,0.50,472.00,VWS V14.00,2013-05-18 17:35:00,
2013-05-18 12:40:00,64.7,63.5,29.80,ESE,104,7.0,7.0,96,0.00,,---,0.50,472.00,VWS V14.00,2013-05-18 17:40:00,
2013-05-18 12:45:00,64.7,63.5,29.80,ESE,103,5.0,7.0,96,0.00,,---,0.50,472.00,VWS V14.00,2013-05-18 17:45:00,
2013-05-18 12:50:00,64.7,62.9,29.78,SE,133,6.0,6.0,94,0.00,,---,0.50,614.00,VWS V14.00,2013-05-18 17:50:00,
2013-05-18 12:55:00,66.6,64.8,29.78,East,86,3.0,10.0,94,0.00,,---,0.50,744.00,VWS V14.00,2013-05-18 17:55:00,
2013-05-18 13:00:00,67.4,65.6,29.78,South,184,3.0,10.0,94,0.00,,---,0.50,744.00,VWS V14.00,2013-05-18 18:00:00,
2013-05-18 13:05:00,68.1,63.8,29.77,SSE,160,2.0,2.0,86,0.00,,---,0.50,744.00,VWS V14.00,2013-05-18 18:05:00,
2013-05-18 13:10:00,68.8,64.4,29.77,SE,133,3.0,3.0,86,0.00,,---,0.50,744.00,VWS V14.00,2013-05-18 18:10:00,
2013-05-18 13:15:00,68.8,64.4,29.77,SE,136,7.0,7.0,86,0.00,,---,0.50,744.00,VWS V14.00,2013-05-18 18:15:00,
2013-05-18 13:20:00,68.8,64.4,29.77,ESE,110,3.0,13.0,86,0.00,,---,0.50,744.00,VWS V14.00,2013-05-18 18:20:00,
2013-05-18 13:25:00,70.1,65.7,29.77,SE,130,3.0,8.0,86,0.00,,---,0.50,744.00,VWS V14.00,2013-05-18 18:25:00,
2013-05-18 13:30:00,70.3,62.0,29.77,ESE,116,7.0,7.0,75,0.00,,---,0.50,565.00,VWS V14.00,2013-05-18 18:30:00,
2013-05-18 13:35:00,70.6,62.3,29.77,SE,144,6.0,6.0,75,0.00,,---,0.50,565.00,VWS V14.00,2013-05-18 18:35:00,
2013-05-18 13:40:00,70.6,62.3,29.77,ESE,123,1.0,1.0,75,0.00,,---,0.50,565.00,VWS V14.00,2013-05-18 18:40:00,
2013-05-18 13:45:00,70.6,62.3,29.77,East,95,4.0,4.0,75,0.00,,---,0.50,565.00,VWS V14.00,2013-05-18 18:45:00,
2013-05-18 13:50:00,72.1,63.8,29.76,ESE,121,4.0,4.0,75,0.00,,---,0.50,565.00,VWS V14.00,2013-05-18 18:50:00,
2013-05-18 13:55:00,72.1,63.8,29.76,South,186,2.0,4.0,75,0.00,,---,0.50,565.00,VWS V14.00,2013-05-18 18:55:00,
2013-05-18 14:00:00,72.8,64.4,29.76,SSE,154,5.0,5.0,75,0.00,,---,0.50,565.00,VWS V14.00,2013-05-18 19:00:00,
2013-05-18 14:05:00,72.8,64.4,29.76,SW,234,2.0,2.0,75,0.00,,---,0.50,565.00,VWS V14.00,2013-05-18 19:05:00,
2013-05-18 14:10:00,73.5,65.1,29.76,ESE,103,4.0,5.0,75,0.00,,---,0.50,565.00,VWS V14.00,2013-05-18 19:10:00,
2013-05-18 14:15:00,73.7,65.3,29.76,SSW,198,5.0,6.0,75,0.00,,---,0.50,565.00,VWS V14.00,2013-05-18 19:15:00,
2013-05-18 14:20:00,73.7,65.3,29.76,SSW,208,3.0,7.0,75,0.00,,---,0.50,565.00,VWS V14.00,2013-05-18 19:20:00,
2013-05-18 14:25:00,73.7,65.3,29.76,SSE,164,1.0,7.0,75,0.00,,---,0.50,565.00,VWS V14.00,2013-05-18 19:25:00,
2013-05-18 14:30:00,73.7,65.3,29.76,SSE,148,2.0,2.0,75,0.00,,---,0.50,565.00,VWS V14.00,2013-05-18 19:30:00,
2013-05-18 14:35:00,74.4,61.9,29.76,South,185,2.0,5.0,65,0.00,,---,0.50,565.00,VWS V14.00,2013-05-18 19:35:00,
2013-05-18 14:40:00,74.6,62.1,29.76,SSE,148,2.0,6.0,65,0.00,,---,0.50,433.00,VWS V14.00,2013-05-18 19:40:00,
2013-05-18 14:45:00,74.7,62.2,29.76,SSE,158,6.0,6.0,65,0.00,,---,0.50,431.00,VWS V14.00,2013-05-18 19:45:00,
2013-05-18 14:50:00,74.7,62.2,29.75,East,99,6.0,6.0,65,0.00,,---,0.50,435.00,VWS V14.00,2013-05-18 19:50:00,
2013-05-18 14:55:00,75.3,62.7,29.75,SW,216,6.0,6.0,65,0.00,,---,0.50,435.00,VWS V14.00,2013-05-18 19:55:00,
2013-05-18 15:00:00,75.8,63.6,29.75,SSE,165,5.0,6.0,66,0.00,,---,0.50,435.00,VWS V14.00,2013-05-18 20:00:00,
2013-05-18 15:05:00,75.8,63.6,29.75,South,172,6.0,7.0,66,0.00,,---,0.50,435.00,VWS V14.00,2013-05-18 20:05:00,
2013-05-18 15:10:00,77.0,64.8,29.75,SW,215,4.0,5.0,66,0.00,,---,0.50,435.00,VWS V14.00,2013-05-18 20:10:00,
2013-05-18 15:15:00,77.4,65.2,29.75,ESE,123,10.0,10.0,66,0.00,,---,0.50,435.00,VWS V14.00,2013-05-18 20:15:00,
2013-05-18 15:20:00,77.4,65.2,29.74,SSE,162,3.0,7.0,66,0.00,,---,0.50,435.00,VWS V14.00,2013-05-18 20:20:00,
2013-05-18 15:25:00,77.4,65.2,29.74,SE,138,3.0,3.0,66,0.00,,---,0.50,435.00,VWS V14.00,2013-05-18 20:25:00,
2013-05-18 15:30:00,78.1,65.8,29.74,SE,141,5.0,5.0,66,0.00,,---,0.50,435.00,VWS V14.00,2013-05-18 20:30:00,
2013-05-18 15:35:00,78.1,65.8,29.74,SSE,165,2.0,2.0,66,0.00,,---,0.50,435.00,VWS V14.00,2013-05-18 20:35:00,
2013-05-18 15:40:00,78.3,66.0,29.74,SSE,148,6.0,6.0,66,0.00,,---,0.50,435.00,VWS V14.00,2013-05-18 20:40:00,
2013-05-18 15:45:00,78.3,66.0,29.74,ESE,103,4.0,4.0,66,0.00,,---,0.50,435.00,VWS V14.00,2013-05-18 20:45:00,
2013-05-18 15:50:00,78.3,62.3,29.73,SSE,154,2.0,2.0,58,0.00,,---,0.50,435.00,VWS V14.00,2013-05-18 20:50:00,
2013-05-18 15:55:00,78.3,62.3,29.73,SSE,164,8.0,8.0,58,0.00,,---,0.50,435.00,VWS V14.00,2013-05-18 20:55:00,
2013-05-18 16:00:00,78.8,62.8,29.73,ESE,117,3.0,3.0,58,0.00,,---,0.50,435.00,VWS V14.00,2013-05-18 21:00:00,
2013-05-18 16:05:00,79.2,63.2,29.73,SE,127,7.0,7.0,58,0.00,,---,0.50,435.00,VWS V14.00,2013-05-18 21:05:00,
2013-05-18 16:10:00,79.2,63.2,29.73,SSE,152,2.0,2.0,58,0.00,,---,0.50,435.00,VWS V14.00,2013-05-18 21:10:00,
2013-05-18 16:15:00,79.0,63.0,29.73,ESE,123,5.0,5.0,58,0.00,,---,0.50,435.00,VWS V14.00,2013-05-18 21:15:00,
2013-05-18 16:20:00,79.6,63.5,29.73,SSE,160,7.0,7.0,58,0.00,,---,0.50,435.00,VWS V14.00,2013-05-18 21:20:00,
2013-05-18 16:25:00,79.6,63.5,29.73,SE,128,5.0,5.0,58,0.00,,---,0.50,556.00,VWS V14.00,2013-05-18 21:25:00,
2013-05-18 16:30:00,79.8,63.7,29.73,SSW,198,1.0,6.0,58,0.00,,---,0.50,556.00,VWS V14.00,2013-05-18 21:30:00,
2013-05-18 16:35:00,79.8,63.7,29.73,SW,232,1.0,1.0,58,0.00,,---,0.50,556.00,VWS V14.00,2013-05-18 21:35:00,
2013-05-18 16:40:00,80.3,64.2,29.73,East,100,2.0,2.0,58,0.00,,---,0.50,581.00,VWS V14.00,2013-05-18 21:40:00,
2013-05-18 16:45:00,80.5,64.4,29.73,SSE,152,2.0,5.0,58,0.00,,---,0.50,581.00,VWS V14.00,2013-05-18 21:45:00,
2013-05-18 16:50:00,80.3,64.2,29.73,SSE,152,1.0,4.0,58,0.00,,---,0.50,581.00,VWS V14.00,2013-05-18 21:50:00,
2013-05-18 16:55:00,79.9,63.8,29.73,ESE,104,2.0,2.0,58,0.00,,---,0.50,581.00,VWS V14.00,2013-05-18 21:55:00,
2013-05-18 17:00:00,79.9,63.8,29.73,ESE,120,7.0,8.0,58,0.00,,---,0.50,581.00,VWS V14.00,2013-05-18 22:00:00,
2013-05-18 17:05:00,79.9,63.8,29.72,ESE,109,2.0,2.0,58,0.00,,---,0.50,581.00,VWS V14.00,2013-05-18 22:05:00,
2013-05-18 17:10:00,79.8,63.7,29.72,SE,141,3.0,3.0,58,0.00,,---,0.50,581.00,VWS V14.00,2013-05-18 22:10:00,
2013-05-18 17:15:00,79.8,63.7,29.72,South,188,2.0,4.0,58,0.00,,---,0.50,225.00,VWS V14.00,2013-05-18 22:15:00,
2013-05-18 17:20:00,79.6,61.0,29.72,SW,223,3.0,7.0,53,0.00,,---,0.50,225.00,VWS V14.00,2013-05-18 22:20:00,
2013-05-18 17:25:00,79.6,61.0,29.72,SE,126,1.0,1.0,53,0.00,,---,0.50,225.00,VWS V14.00,2013-05-18 22:25:00,
2013-05-18 17:30:00,79.6,61.0,29.72,SSW,206,8.0,8.0,53,0.00,,---,0.50,225.00,VWS V14.00,2013-05-18 22:30:00,
2013-05-18 17:35:00,79.6,60.4,29.73,South,188,4.0,5.0,52,0.00,,---,0.50,225.00,VWS V14.00,2013-05-18 22:35:00,
2013-05-18 17:40:00,79.6,60.4,29.73,SSE,162,2.0,2.0,52,0.00,,---,0.50,230.00,VWS V14.00,2013-05-18 22:40:00,
2013-05-18 17:45:00,79.6,60.4,29.73,SE,136,4.0,5.0,52,0.00,,---,0.50,230.00,VWS V14.00,2013-05-18 22:45:00,
2013-05-18 17:50:00,79.8,60.6,29.73,ESE,120,2.0,2.0,52,0.00,,---,0.50,230.00,VWS V14.00,2013-05-18 22:50:00,
2013-05-18 17:55:00,79.8,60.6,29.73,ESE,102,3.0,3.0,52,0.00,,---,0.50,230.00,VWS V14.00,2013-05-18 22:55:00,
2013-05-18 18:00:00,79.6,60.4,29.73,SW,224,1.0,3.0,52,0.00,,---,0.50,230.00,VWS V14.00,2013-05-18 23:00:00,
2013-05-18 18:05:00,79.6,60.4,29.73,SSE,161,1.0,6.0,52,0.00,,---,0.50,230.00,VWS V14.00,2013-05-18 23:05:00,
2013-05-18 18:10:00,79.6,60.4,29.73,SE,141,1.0,1.0,52,0.00,,---,0.50,230.00,VWS V14.00,2013-05-18 23:10:00,
2013-05-18 18:15:00,79.6,60.4,29.73,East,93,7.0,7.0,52,0.00,,---,0.50,230.00,VWS V14.00,2013-05-18 23:15:00,
2013-05-18 18:20:00,79.6,60.4,29.73,SE,133,2.0,2.0,52,0.00,,---,0.50,230.00,VWS V14.00,2013-05-18 23:20:00,
2013-05-18 18:25:00,79.8,60.6,29.73,SE,128,2.0,4.0,52,0.00,,---,0.50,230.00,VWS V14.00,2013-05-18 23:25:00,
2013-05-18 18:30:00,79.6,60.4,29.73,SE,143,3.0,7.0,52,0.00,,---,0.50,230.00,VWS V14.00,2013-05-18 23:30:00,
2013-05-18 18:35:00,79.6,60.4,29.73,East,100,5.0,5.0,52,0.00,,---,0.50,230.00,VWS V14.00,2013-05-18 23:35:00,
2013-05-18 18:40:00,79.6,60.4,29.73,SW,219,1.0,1.0,52,0.00,,---,0.50,230.00,VWS V14.00,2013-05-18 23:40:00,
2013-05-18 18:45:00,79.6,60.4,29.73,South,169,5.0,5.0,52,0.00,,---,0.50,230.00,VWS V14.00,2013-05-18 23:45:00,
2013-05-18 18:50:00,79.6,60.4,29.73,South,178,2.0,2.0,52,0.00,,---,0.50,230.00,VWS V14.00,2013-05-18 23:50:00,
2013-05-18 18:55:00,79.2,60.1,29.73,SSE,165,2.0,2.0,52,0.00,,---,0.50,230.00,VWS V14.00,2013-05-18 23:55:00,
2013-05-18 19:00:00,79.2,61.1,29.73,South,182,3.0,3.0,54,0.00,,---,0.50,230.00,VWS V14.00,2013-05-19 00:00:00,
2013-05-18 19:05:00,79.2,61.1,29.73,SSE,148,2.0,2.0,54,0.00,,---,0.50,230.00,VWS V14.00,2013-05-19 00:05:00,
2013-05-18 19:10:00,79.4,61.3,29.73,South,191,0.0,0.0,54,0.00,,---,0.50,230.00,VWS V14.00,2013-05-19 00:10:00,
2013-05-18 19:15:00,79.4,61.3,29.73,South,191,0.0,2.0,54,0.00,,---,0.50,230.00,VWS V14.00,2013-05-19 00:15:00,
2013-05-18 19:20:00,79.2,61.7,29.73,SSE,150,2.0,2.0,55,0.00,,---,0.50,72.00,VWS V14.00,2013-05-19 00:20:00,
2013-05-18 19:25:00,79.0,61.5,29.73,ESE,112,1.0,2.0,55,0.00,,---,0.50,72.00,VWS V14.00,2013-05-19 00:25:00,
2013-05-18 19:30:00,78.6,61.1,29.73,SSE,154,3.0,3.0,55,0.00,,---,0.50,72.00,VWS V14.00,2013-05-19 00:30:00,
2013-05-18 19:35:00,78.6,61.1,29.73,SSE,164,2.0,2.0,55,0.00,,---,0.50,72.00,VWS V14.00,2013-05-19 00:35:00,
2013-05-18 19:40:00,78.5,61.0,29.73,SE,131,1.0,1.0,55,0.00,,---,0.50,72.00,VWS V14.00,2013-05-19 00:40:00,
2013-05-18 19:45:00,77.9,60.5,29.73,ESE,113,3.0,3.0,55,0.00,,---,0.50,72.00,VWS V14.00,2013-05-19 00:45:00,
2013-05-18 19:50:00,77.7,60.3,29.73,SE,136,2.0,2.0,55,0.00,,---,0.50,72.00,VWS V14.00,2013-05-19 00:50:00,
2013-05-18 19:55:00,77.4,60.0,29.73,East,97,1.0,1.0,55,0.00,,---,0.50,72.00,VWS V14.00,2013-05-19 00:55:00,
2013-05-18 20:00:00,77.2,59.8,29.73,ESE,120,3.0,3.0,55,0.00,,---,0.50,72.00,VWS V14.00,2013-05-19 01:00:00,
2013-05-18 20:05:00,77.2,61.8,29.72,SE,126,1.0,1.0,59,0.00,,---,0.50,72.00,VWS V14.00,2013-05-19 01:05:00,
2013-05-18 20:10:00,76.8,61.4,29.72,ESE,103,2.0,2.0,59,0.00,,---,0.50,72.00,VWS V14.00,2013-05-19 01:10:00,
2013-05-18 20:15:00,76.7,61.3,29.72,SE,136,1.0,2.0,59,0.00,,---,0.50,72.00,VWS V14.00,2013-05-19 01:15:00,
2013-05-18 20:20:00,76.3,60.9,29.71,ESE,110,1.0,1.0,59,0.00,,---,0.50,72.00,VWS V14.00,2013-05-19 01:20:00,
2013-05-18 20:25:00,76.1,60.8,29.71,East,97,1.0,3.0,59,0.00,,---,0.50,72.00,VWS V14.00,2013-05-19 01:25:00,
2013-05-18 20:30:00,75.8,60.5,29.71,ESE,114,3.0,3.0,59,0.00,,---,0.50,72.00,VWS V14.00,2013-05-19 01:30:00,
2013-05-18 20:35:00,75.8,60.5,29.71,ESE,112,2.0,2.0,59,0.00,,---,0.50,72.00,VWS V14.00,2013-05-19 01:35:00,
2013-05-18 20:40:00,75.4,60.1,29.71,ESE,117,2.0,2.0,59,0.00,,---,0.50,72.00,VWS V14.00,2013-05-19 01:40:00,
2013-05-18 20:45:00,75.4,60.1,29.71,ESE,120,3.0,4.0,59,0.00,,---,0.50,72.00,VWS V14.00,2013-05-19 01:45:00,
2013-05-18 20:50:00,75.1,59.8,29.71,ESE,109,3.0,3.0,59,0.00,,---,0.50,72.00,VWS V14.00,2013-05-19 01:50:00,
2013-05-18 20:55:00,75.1,59.8,29.71,ESE,106,2.0,2.0,59,0.00,,---,0.50,72.00,VWS V14.00,2013-05-19 01:55:00,
2013-05-18 21:00:00,74.9,59.6,29.71,ESE,103,2.0,2.0,59,0.00,,---,0.50,72.00,VWS V14.00,2013-05-19 02:00:00,
2013-05-18 21:05:00,74.6,62.9,29.70,East,99,1.0,1.0,67,0.00,,---,0.50,0.00,VWS V14.00,2013-05-19 02:05:00,
2013-05-18 21:10:00,74.2,62.5,29.70,East,99,1.0,1.0,67,0.00,,---,0.50,0.00,VWS V14.00,2013-05-19 02:10:00,
2013-05-18 21:15:00,73.9,62.3,29.70,ESE,112,1.0,2.0,67,0.00,,---,0.50,0.00,VWS V14.00,2013-05-19 02:15:00,
2013-05-18 21:20:00,73.9,62.3,29.71,ESE,110,1.0,1.0,67,0.00,,---,0.50,0.00,VWS V14.00,2013-05-19 02:20:00,
2013-05-18 21:25:00,73.3,62.5,29.71,ESE,110,1.0,1.0,69,0.00,,---,0.50,0.00,VWS V14.00,2013-05-19 02:25:00,
2013-05-18 21:30:00,73.2,62.4,29.71,East,79,1.0,1.0,69,0.00,,---,0.50,0.00,VWS V14.00,2013-05-19 02:30:00,
2013-05-18 21:35:00,73.0,62.7,29.71,ENE,68,1.0,1.0,70,0.00,,---,0.50,0.00,VWS V14.00,2013-05-19 02:35:00,
2013-05-18 21:40:00,72.8,62.5,29.71,ENE,75,1.0,2.0,70,0.00,,---,0.50,0.00,VWS V14.00,2013-05-19 02:40:00,
2013-05-18 21:45:00,72.5,62.2,29.71,ENE,75,2.0,2.0,70,0.00,,---,0.50,0.00,VWS V14.00,2013-05-19 02:45:00,
2013-05-18 21:50:00,72.5,62.2,29.71,East,96,2.0,2.0,70,0.00,,---,0.50,0.00,VWS V14.00,2013-05-19 02:50:00,
2013-05-18 21:55:00,72.3,62.0,29.71,East,96,2.0,2.0,70,0.00,,---,0.50,0.00,VWS V14.00,2013-05-19 02:55:00,
2013-05-18 22:00:00,72.0,61.7,29.71,ESE,103,2.0,2.0,70,0.00,,---,0.50,0.00,VWS V14.00,2013-05-19 03:00:00,
2013-05-18 22:05:00,71.8,61.5,29.71,NE,54,2.0,2.0,70,0.00,,---,0.50,0.00,VWS V14.00,2013-05-19 03:05:00,
2013-05-18 22:10:00,71.8,61.5,29.71,East,92,2.0,2.0,70,0.00,,---,0.50,0.00,VWS V14.00,2013-05-19 03:10:00,
2013-05-18 22:15:00,71.5,61.2,29.71,ENE,75,1.0,1.0,70,0.00,,---,0.50,0.00,VWS V14.00,2013-05-19 03:15:00,
2013-05-18 22:20:00,71.5,61.2,29.71,ENE,78,2.0,2.0,70,0.00,,---,0.50,0.00,VWS V14.00,2013-05-19 03:20:00,
2013-05-18 22:25:00,71.1,60.8,29.71,ESE,102,1.0,5.0,70,0.00,,---,0.50,0.00,VWS V14.00,2013-05-19 03:25:00,
2013-05-18 22:30:00,71.1,60.8,29.71,ESE,102,2.0,2.0,70,0.00,,---,0.50,0.00,VWS V14.00,2013-05-19 03:30:00,
2013-05-18 22:35:00,70.9,62.2,29.70,East,89,3.0,3.0,74,0.00,,---,0.50,0.00,VWS V14.00,2013-05-19 03:35:00,
2013-05-18 22:40:00,70.8,62.1,29.70,ESE,110,3.0,3.0,74,0.00,,---,0.50,0.00,VWS V14.00,2013-05-19 03:40:00,
2013-05-18 22:45:00,70.8,62.1,29.70,ESE,104,2.0,2.0,74,0.00,,---,0.50,0.00,VWS V14.00,2013-05-19 03:45:00,
2013-05-18 22:50:00,70.6,62.7,29.69,ESE,104,3.0,3.0,76,0.00,,---,0.50,0.00,VWS V14.00,2013-05-19 03:50:00,
2013-05-18 22:55:00,70.6,62.7,29.69,ESE,106,4.0,5.0,76,0.00,,---,0.50,0.00,VWS V14.00,2013-05-19 03:55:00,
2013-05-18 23:00:00,70.4,62.5,29.69,ESE,109,3.0,3.0,76,0.00,,---,0.50,0.00,VWS V14.00,2013-05-19 04:00:00,
2013-05-18 23:01:00,70.4,62.5,29.69,ESE,109,3.0,3.0,76,0.00,,---,0.50,0.00,VWS V14.00,2013-05-19 04:01:00,
2013-05-18 23:06:00,70.4,62.5,29.69,ESE,114,3.0,3.0,76,0.00,,---,0.50,0.00,VWS V14.00,2013-05-19 04:06:00,
2013-05-18 23:11:00,70.4,62.5,29.69,ESE,109,3.0,3.0,76,0.00,,---,0.50,0.00,VWS V14.00,2013-05-19 04:11:00,
2013-05-18 23:16:00,70.4,62.5,29.69,SE,127,3.0,3.0,76,0.00,,---,0.50,0.00,VWS V14.00,2013-05-19 04:16:00,
2013-05-18 23:21:00,70.3,62.4,29.68,SE,141,2.0,4.0,76,0.00,,---,0.50,0.00,VWS V14.00,2013-05-19 04:21:00,
2013-05-18 23:26:00,70.3,62.4,29.68,ESE,106,3.0,3.0,76,0.00,,---,0.50,0.00,VWS V14.00,2013-05-19 04:26:00,
2013-05-18 23:31:00,70.3,62.4,29.68,ESE,121,2.0,3.0,76,0.00,,---,0.50,0.00,VWS V14.00,2013-05-19 04:31:00,
2013-05-18 23:36:00,70.3,62.4,29.70,SE,124,1.0,1.0,76,0.00,,---,0.50,0.00,VWS V14.00,2013-05-19 04:36:00,
2013-05-18 23:41:00,70.3,62.4,29.70,ESE,117,2.0,2.0,76,0.00,,---,0.50,0.00,VWS V14.00,2013-05-19 04:41:00,
2013-05-18 23:46:00,70.1,62.2,29.70,ESE,114,2.0,2.0,76,0.00,,---,0.50,0.00,VWS V14.00,2013-05-19 04:46:00,
2013-05-18 23:51:00,69.9,62.0,29.69,ESE,112,1.0,2.0,76,0.00,,---,0.50,0.00,VWS V14.00,2013-05-19 04:51:00,
2013-05-18 23:56:00,69.8,61.9,29.69,ESE,109,2.0,3.0,76,0.00,,---,0.50,0.00,VWS V14.00,2013-05-19 04:56:00,